Time,TemperatureF,DewpointF,PressureIn,WindDirection,WindDirectionDegrees,WindSpeedMPH,WindSpeedGustMPH,Humidity,HourlyPrecipIn,Conditions,Clouds,dailyrainin,SoftwareType,DateUTC
2013-07-04 00:10:00,-999.0,-99.9,30.20,North,-999,-999.0,-999.0,-999,-99.99,,,0.00,weatherlink.com 1.10,2013-07-04 04:10:00,
2013-07-04 00:25:00,-999.0,-99.9,30.20,North,-999,-999.0,-999.0,-999,-99.99,,,0.00,weatherlink.com 1.10,2013-07-04 04:25:00,
2013-07-04 00:40:00,-999.0,-99.9,30.21,North,-999,-999.0,-999.0,-999,-99.99,,,0.00,weatherlink.com 1.10,2013-07-04 04:40:00,
2013-07-04 00:55:00,-999.0,-99.9,30.20,North,-999,-999.0,-999.0,-999,-99.99,,,0.00,weatherlink.com 1.10,2013-07-04 04:55:00,
2013-07-04 01:11:00,-999.0,-99.9,30.19,North,-999,-999.0,-999.0,-999,-99.99,,,0.00,weatherlink.com 1.10,2013-07-04 05:11:00,
2013-07-04 01:30:00,-999.0,-99.9,30.19,North,-999,-999.0,-999.0,-999,-99.99,,,0.00,weatherlink.com 1.10,2013-07-04 05:30:00,
2013-07-04 01:41:00,-999.0,-99.9,30.19,North,-999,-999.0,-999.0,-999,-99.99,,,0.00,weatherlink.com 1.10,2013-07-04 05:41:00,
2013-07-04 01:56:00,-999.0,-99.9,30.19,North,-999,-999.0,-999.0,-999,-99.99,,,0.00,weatherlink.com 1.10,2013-07-04 05:56:00,
2013-07-04 02:11:00,-999.0,-99.9,30.19,North,-999,-999.0,-999.0,-999,-99.99,,,0.00,weatherlink.com 1.10,2013-07-04 06:11:00,
2013-07-04 02:26:00,-999.0,-99.9,30.18,North,-999,-999.0,-999.0,-999,-99.99,,,0.00,weatherlink.com 1.10,2013-07-04 06:26:00,
2013-07-04 02:41:00,-999.0,-99.9,30.18,North,-999,-999.0,-999.0,-999,-99.99,,,0.00,weatherlink.com 1.10,2013-07-04 06:41:00,
2013-07-04 02:56:00,-999.0,-99.9,30.18,North,-999,-999.0,-999.0,-999,-99.99,,,0.00,weatherlink.com 1.10,2013-07-04 06:56:00,
2013-07-04 03:11:00,-999.0,-99.9,30.18,North,-999,-999.0,-999.0,-999,-99.99,,,0.00,weatherlink.com 1.10,2013-07-04 07:11:00,
2013-07-04 03:26:00,-999.0,-99.9,30.18,North,-999,-999.0,-999.0,-999,-99.99,,,0.00,weatherlink.com 1.10,2013-07-04 07:26:00,
2013-07-04 03:41:00,-999.0,-99.9,30.18,North,-999,-999.0,-999.0,-999,-99.99,,,0.00,weatherlink.com 1.10,2013-07-04 07:41:00,
2013-07-04 03:56:00,-999.0,-99.9,30.18,North,-999,-999.0,-999.0,-999,-99.99,,,0.00,weatherlink.com 1.10,2013-07-04 07:56:00,
2013-07-04 04:11:00,-999.0,-99.9,30.18,North,-999,-999.0,-999.0,-999,-99.99,,,0.00,weatherlink.com 1.10,2013-07-04 08:11:00,
2013-07-04 04:27:00,-999.0,-99.9,30.18,North,-999,-999.0,-999.0,-999,-99.99,,,0.00,weatherlink.com 1.10,2013-07-04 08:27:00,
2013-07-04 04:42:00,-999.0,-99.9,30.18,North,-999,-999.0,-999.0,-999,-99.99,,,0.00,weatherlink.com 1.10,2013-07-04 08:42:00,
2013-07-04 04:57:00,-999.0,-99.9,30.18,North,-999,-999.0,-999.0,-999,-99.99,,,0.00,weatherlink.com 1.10,2013-07-04 08:57:00,
2013-07-04 05:12:00,-999.0,-99.9,30.19,North,-999,-999.0,-999.0,-999,-99.99,,,0.00,weatherlink.com 1.10,2013-07-04 09:12:00,
2013-07-04 05:27:00,-999.0,-99.9,30.19,North,-999,-999.0,-999.0,-999,-99.99,,,0.00,weatherlink.com 1.10,2013-07-04 09:27:00,
2013-07-04 05:42:00,-999.0,-99.9,30.20,North,-999,-999.0,-999.0,-999,-99.99,,,0.00,weatherlink.com 1.10,2013-07-04 09:42:00,
2013-07-04 05:57:00,-999.0,-99.9,30.20,North,-999,-999.0,-999.0,-999,-99.99,,,0.00,weatherlink.com 1.10,2013-07-04 09:57:00,
2013-07-04 06:12:00,-999.0,-99.9,30.19,North,-999,-999.0,-999.0,-999,-99.99,,,0.00,weatherlink.com 1.10,2013-07-04 10:12:00,
2013-07-04 06:27:00,-999.0,-99.9,30.20,North,-999,-999.0,-999.0,-999,-99.99,,,0.00,weatherlink.com 1.10,2013-07-04 10:27:00,
2013-07-04 06:42:00,68.0,67.0,30.20,ESE,118,0.0,-999.0,97,-99.99,,,0.00,weatherlink.com 1.10,2013-07-04 10:42:00,
2013-07-04 06:57:00,67.8,67.0,30.20,ESE,118,0.0,-999.0,98,-99.99,,,0.00,weatherlink.com 1.10,2013-07-04 10:57:00,
2013-07-04 07:12:00,69.0,69.0,30.20,ESE,122,0.0,-999.0,99,-99.99,,,0.00,weatherlink.com 1.10,2013-07-04 11:12:00,
2013-07-04 07:27:00,69.9,70.0,30.20,ESE,122,0.0,-999.0,99,-99.99,,,0.00,weatherlink.com 1.10,2013-07-04 11:27:00,
2013-07-04 07:42:00,70.5,70.0,30.20,ESE,122,0.0,-999.0,99,-99.99,,,0.00,weatherlink.com 1.10,2013-07-04 11:42:00,
2013-07-04 07:57:00,70.2,70.0,30.21,ESE,122,0.0,-999.0,98,-99.99,,,0.00,weatherlink.com 1.10,2013-07-04 11:57:00,
2013-07-04 08:12:00,71.7,71.0,30.21,ESE,109,0.0,-999.0,99,-99.99,,,0.00,weatherlink.com 1.10,2013-07-04 12:12:00,
2013-07-04 08:27:00,73.4,73.0,30.21,ESE,111,0.0,-999.0,97,-99.99,,,0.00,weatherlink.com 1.10,2013-07-04 12:27:00,
2013-07-04 08:43:00,73.7,72.0,30.20,NW,325,0.0,-999.0,94,-99.99,,,0.00,weatherlink.com 1.10,2013-07-04 12:43:00,
2013-07-04 08:58:00,75.1,74.0,30.21,NNE,26,0.0,-999.0,95,-99.99,,,0.00,weatherlink.com 1.10,2013-07-04 12:58:00,
2013-07-04 09:13:00,76.5,72.0,30.20,East,86,2.0,-999.0,87,-99.99,,,0.00,weatherlink.com 1.10,2013-07-04 13:13:00,
2013-07-04 09:28:00,76.4,72.0,30.20,NNW,333,0.0,-999.0,87,-99.99,,,0.00,weatherlink.com 1.10,2013-07-04 13:28:00,
2013-07-04 09:43:00,76.2,72.0,30.20,ESE,117,0.0,-999.0,87,-99.99,,,0.00,weatherlink.com 1.10,2013-07-04 13:43:00,
2013-07-04 09:58:00,76.6,73.0,30.20,NNW,327,0.0,-999.0,88,-99.99,,,0.00,weatherlink.com 1.10,2013-07-04 13:58:00,
2013-07-04 10:13:00,77.4,73.0,30.20,NNW,327,4.0,-999.0,86,-99.99,,,0.00,weatherlink.com 1.10,2013-07-04 14:13:00,
2013-07-04 10:28:00,77.9,73.0,30.19,East,94,1.0,-999.0,85,-99.99,,,0.00,weatherlink.com 1.10,2013-07-04 14:28:00,
2013-07-04 10:43:00,78.4,73.0,30.18,South,173,1.0,-999.0,84,-99.99,,,0.00,weatherlink.com 1.10,2013-07-04 14:43:00,
2013-07-04 10:58:00,78.7,73.0,30.19,WNW,292,1.0,-999.0,83,-99.99,,,0.00,weatherlink.com 1.10,2013-07-04 14:58:00,
2013-07-04 11:13:00,79.1,73.0,30.19,ESE,106,0.0,-999.0,82,-99.99,,,0.00,weatherlink.com 1.10,2013-07-04 15:13:00,
2013-07-04 11:28:00,79.4,74.0,30.18,ESE,109,4.0,-999.0,83,-99.99,,,0.00,weatherlink.com 1.10,2013-07-04 15:28:00,
2013-07-04 11:43:00,79.3,74.0,30.18,ENE,57,1.0,-999.0,84,-99.99,,,0.00,weatherlink.com 1.10,2013-07-04 15:43:00,
2013-07-04 11:58:00,79.7,74.0,30.17,South,187,0.0,-999.0,83,-99.99,,,0.00,weatherlink.com 1.10,2013-07-04 15:58:00,
2013-07-04 12:13:00,79.9,74.0,30.17,NE,51,0.0,-999.0,81,-99.99,,,0.00,weatherlink.com 1.10,2013-07-04 16:13:00,
2013-07-04 12:28:00,80.7,76.0,30.16,SW,232,0.0,-999.0,84,-99.99,,,0.00,weatherlink.com 1.10,2013-07-04 16:28:00,
2013-07-04 12:43:00,81.2,75.0,30.16,SW,215,1.0,-999.0,81,-99.99,,,0.00,weatherlink.com 1.10,2013-07-04 16:43:00,
2013-07-04 12:58:00,82.1,75.0,30.15,West,276,2.0,-999.0,79,-99.99,,,0.00,weatherlink.com 1.10,2013-07-04 16:58:00,
2013-07-04 13:13:00,82.5,73.0,30.14,West,278,0.0,-999.0,74,-99.99,,,0.00,weatherlink.com 1.10,2013-07-04 17:13:00,
2013-07-04 13:28:00,82.1,74.0,30.14,SE,138,6.0,-999.0,75,-99.99,,,0.00,weatherlink.com 1.10,2013-07-04 17:28:00,
2013-07-04 13:43:00,82.8,73.0,30.13,SE,138,2.0,-999.0,73,-99.99,,,0.00,weatherlink.com 1.10,2013-07-04 17:43:00,
2013-07-04 13:58:00,83.7,73.0,30.13,SSE,150,0.0,-999.0,71,-99.99,,,0.00,weatherlink.com 1.10,2013-07-04 17:58:00,
2013-07-04 14:13:00,83.8,74.0,30.13,SSE,167,0.0,-999.0,73,-99.99,,,0.00,weatherlink.com 1.10,2013-07-04 18:13:00,
2013-07-04 14:28:00,83.3,73.0,30.12,NW,319,1.0,-999.0,72,-99.99,,,0.00,weatherlink.com 1.10,2013-07-04 18:28:00,
2013-07-04 14:43:00,82.8,73.0,30.11,North,11,2.0,-999.0,72,-99.99,,,0.00,weatherlink.com 1.10,2013-07-04 18:43:00,
2013-07-04 14:58:00,83.0,72.0,30.11,NE,40,1.0,-999.0,70,-99.99,,,0.00,weatherlink.com 1.10,2013-07-04 18:58:00,
2013-07-04 15:13:00,84.3,71.0,30.10,NW,315,7.0,-999.0,65,-99.99,,,0.00,weatherlink.com 1.10,2013-07-04 19:13:00,
2013-07-04 15:28:00,83.7,70.0,30.10,North,350,5.0,-999.0,64,-99.99,,,0.00,weatherlink.com 1.10,2013-07-04 19:28:00,
2013-07-04 15:43:00,81.2,71.0,30.10,ENE,65,0.0,-999.0,70,-99.99,,,0.00,weatherlink.com 1.10,2013-07-04 19:43:00,
2013-07-04 15:59:00,78.6,70.0,30.15,NW,321,5.0,-999.0,74,-99.99,,,0.00,weatherlink.com 1.10,2013-07-04 19:59:00,
2013-07-04 16:14:00,-999.0,-99.9,30.15,North,-999,-999.0,-999.0,-999,-99.99,,,0.00,weatherlink.com 1.10,2013-07-04 20:14:00,
2013-07-04 16:29:00,-999.0,-99.9,30.16,North,-999,-999.0,-999.0,-999,-99.99,,,0.00,weatherlink.com 1.10,2013-07-04 20:29:00,
2013-07-04 16:44:00,-999.0,-99.9,30.14,North,-999,-999.0,-999.0,-999,-99.99,,,0.00,weatherlink.com 1.10,2013-07-04 20:44:00,
2013-07-04 16:59:00,-999.0,-99.9,30.13,North,-999,-999.0,-999.0,-999,-99.99,,,0.00,weatherlink.com 1.10,2013-07-04 20:59:00,
2013-07-04 17:14:00,-999.0,-99.9,30.12,North,-999,-999.0,-999.0,-999,-99.99,,,0.00,weatherlink.com 1.10,2013-07-04 21:14:00,
2013-07-04 17:29:00,-999.0,-99.9,30.16,North,-999,-999.0,-999.0,-999,-99.99,,,0.00,weatherlink.com 1.10,2013-07-04 21:29:00,
2013-07-04 17:44:00,-999.0,-99.9,30.13,North,-999,-999.0,-999.0,-999,-99.99,,,0.00,weatherlink.com 1.10,2013-07-04 21:44:00,
2013-07-04 17:59:00,-999.0,-99.9,30.12,North,-999,-999.0,-999.0,-999,-99.99,,,0.00,weatherlink.com 1.10,2013-07-04 21:59:00,
2013-07-04 18:14:00,-999.0,-99.9,30.13,North,-999,-999.0,-999.0,-999,-99.99,,,0.00,weatherlink.com 1.10,2013-07-04 22:14:00,
2013-07-04 18:29:00,-999.0,-99.9,30.12,North,-999,-999.0,-999.0,-999,-99.99,,,0.00,weatherlink.com 1.10,2013-07-04 22:29:00,
2013-07-04 18:44:00,-999.0,-99.9,30.12,North,-999,-999.0,-999.0,-999,-99.99,,,0.00,weatherlink.com 1.10,2013-07-04 22:44:00,
2013-07-04 18:59:00,-999.0,-99.9,30.12,North,-999,-999.0,-999.0,-999,-99.99,,,0.00,weatherlink.com 1.10,2013-07-04 22:59:00,
2013-07-04 19:14:00,-999.0,-99.9,30.11,North,-999,-999.0,-999.0,-999,-99.99,,,0.00,weatherlink.com 1.10,2013-07-04 23:14:00,
2013-07-04 19:30:00,-999.0,-99.9,30.11,North,-999,-999.0,-999.0,-999,-99.99,,,0.00,weatherlink.com 1.10,2013-07-04 23:30:00,
2013-07-04 19:45:00,-999.0,-99.9,30.11,North,-999,-999.0,-999.0,-999,-99.99,,,0.00,weatherlink.com 1.10,2013-07-04 23:45:00,
2013-07-04 20:00:00,-999.0,-99.9,30.11,North,-999,-999.0,-999.0,-999,-99.99,,,0.00,weatherlink.com 1.10,2013-07-05 00:00:00,
2013-07-04 20:15:00,-999.0,-99.9,30.12,North,-999,-999.0,-999.0,-999,-99.99,,,0.00,weatherlink.com 1.10,2013-07-05 00:15:00,
2013-07-04 20:30:00,-999.0,-99.9,30.11,North,-999,-999.0,-999.0,-999,-99.99,,,0.00,weatherlink.com 1.10,2013-07-05 00:30:00,
2013-07-04 20:45:00,-999.0,-99.9,30.11,North,-999,-999.0,-999.0,-999,-99.99,,,0.00,weatherlink.com 1.10,2013-07-05 00:45:00,
2013-07-04 21:00:00,-999.0,-99.9,30.11,North,-999,-999.0,-999.0,-999,-99.99,,,0.00,weatherlink.com 1.10,2013-07-05 01:00:00,
2013-07-04 21:15:00,-999.0,-99.9,30.11,North,-999,-999.0,-999.0,-999,-99.99,,,0.00,weatherlink.com 1.10,2013-07-05 01:15:00,
2013-07-04 21:30:00,-999.0,-99.9,30.12,North,-999,-999.0,-999.0,-999,-99.99,,,0.00,weatherlink.com 1.10,2013-07-05 01:30:00,
2013-07-04 21:45:00,-999.0,-99.9,30.13,North,-999,-999.0,-999.0,-999,-99.99,,,0.00,weatherlink.com 1.10,2013-07-05 01:45:00,
2013-07-04 22:00:00,-999.0,-99.9,30.13,North,-999,-999.0,-999.0,-999,-99.99,,,0.00,weatherlink.com 1.10,2013-07-05 02:00:00,
2013-07-04 22:15:00,-999.0,-99.9,30.13,North,-999,-999.0,-999.0,-999,-99.99,,,0.00,weatherlink.com 1.10,2013-07-05 02:15:00,
2013-07-04 22:30:00,-999.0,-99.9,30.13,North,-999,-999.0,-999.0,-999,-99.99,,,0.00,weatherlink.com 1.10,2013-07-05 02:30:00,
2013-07-04 22:46:00,-999.0,-99.9,30.13,North,-999,-999.0,-999.0,-999,-99.99,,,0.00,weatherlink.com 1.10,2013-07-05 02:46:00,
2013-07-04 23:01:00,-999.0,-99.9,30.14,North,-999,-999.0,-999.0,-999,-99.99,,,0.00,weatherlink.com 1.10,2013-07-05 03:01:00,
2013-07-04 23:16:00,-999.0,-99.9,30.14,North,-999,-999.0,-999.0,-999,-99.99,,,0.00,weatherlink.com 1.10,2013-07-05 03:16:00,
2013-07-04 23:31:00,-999.0,-99.9,30.14,North,-999,-999.0,-999.0,-999,-99.99,,,0.00,weatherlink.com 1.10,2013-07-05 03:31:00,
2013-07-04 23:46:00,-999.0,-99.9,30.14,North,-999,-999.0,-999.0,-999,-99.99,,,0.00,weatherlink.com 1.10,2013-07-05 03:46:00,